TimeICT,TemperatureF,Dew PointF,Humidity,Sea Level PressureIn,VisibilityMPH,Wind Direction,Wind SpeedMPH,Gust SpeedMPH,PrecipitationIn,Events,Conditions,WindDirDegrees,DateUTC
12:00 AM,69.8,62.6,78,29.92,-9999.0,Calm,Calm,-,N/A,,Clear,0,2012-12-06 17:00:00
12:30 AM,69.8,60.8,73,29.92,-9999.0,Calm,Calm,-,N/A,,Clear,0,2012-12-06 17:30:00
1:00 AM,69,64,79,29.89,6,Calm,Calm,,,,,,2012-12-06 18:00:00
3:00 AM,68.0,62.6,83,29.92,-9999.0,Calm,Calm,-,N/A,,Clear,0,2012-12-06 20:00:00
3:30 AM,68.0,60.8,78,29.92,-9999.0,ENE,3.5,-,N/A,,Clear,60,2012-12-06 20:30:00
4:00 AM,66.2,60.8,83,29.92,-9999.0,NW,2.3,-,N/A,,Clear,310,2012-12-06 21:00:00
4:30 AM,66.2,60.8,83,29.92,-9999.0,Calm,Calm,-,N/A,,Clear,0,2012-12-06 21:30:00
5:00 AM,64.4,59.0,83,29.92,-9999.0,Calm,Calm,-,N/A,,Clear,0,2012-12-06 22:00:00
5:30 AM,64.4,59.0,83,29.95,-9999.0,Calm,Calm,-,N/A,,Clear,0,2012-12-06 22:30:00
6:00 AM,64.4,59.0,83,29.95,-9999.0,Calm,Calm,-,N/A,,Clear,0,2012-12-06 23:00:00
6:30 AM,64.4,59.0,83,29.98,-9999.0,SSW,2.3,-,N/A,,Clear,200,2012-12-06 23:30:00
7:00 AM,64,61,88,29.96,6,Calm,Calm,,,,,,2012-12-07 00:00:00
7:00 AM,64.4,59.0,83,29.98,-9999.0,West,2.3,-,N/A,,Clear,260,2012-12-07 00:00:00
7:30 AM,64.4,60.8,88,30.01,-9999.0,SSW,1.2,-,N/A,,Clear,200,2012-12-07 00:30:00
8:00 AM,69.8,60.8,73,30.01,-9999.0,Calm,Calm,-,N/A,,Clear,0,2012-12-07 01:00:00
8:30 AM,71.6,59.0,64,30.01,-9999.0,Calm,Calm,-,N/A,,Clear,0,2012-12-07 01:30:00
9:00 AM,71.6,60.8,69,30.04,-9999.0,SE,5.8,-,N/A,,Clear,140,2012-12-07 02:00:00
9:30 AM,73.4,60.8,65,30.04,-9999.0,South,2.3,-,N/A,,Clear,190,2012-12-07 02:30:00
10:00 AM,73.4,60.8,65,30.04,-9999.0,SSW,2.3,-,N/A,,Clear,210,2012-12-07 03:00:00
10:30 AM,75.2,60.8,61,30.01,6.2,WSW,2.3,-,N/A,,Partly Cloudy,240,2012-12-07 03:30:00
11:00 AM,77.0,59.0,54,30.01,6.2,WSW,2.3,-,N/A,,Partly Cloudy,250,2012-12-07 04:00:00
11:30 AM,78.8,59.0,51,29.98,6.2,ESE,3.5,-,N/A,,Partly Cloudy,120,2012-12-07 04:30:00
12:00 PM,80.6,57.2,45,29.98,6.2,SSE,4.6,-,N/A,,Partly Cloudy,150,2012-12-07 05:00:00
12:30 PM,80.6,55.4,42,29.95,6.2,NW,3.5,-,N/A,,Partly Cloudy,310,2012-12-07 05:30:00
1:00 PM,84,59,33,29.86,6,Calm,Calm,,,,Scattered Clouds,,2012-12-07 06:00:00
1:00 PM,82.4,53.6,37,29.92,6.2,South,4.6,-,N/A,,Partly Cloudy,180,2012-12-07 06:00:00
1:30 PM,82.4,53.6,37,29.89,6.2,SSW,5.8,-,N/A,,Partly Cloudy,210,2012-12-07 06:30:00
2:00 PM,84.2,51.8,33,29.89,6.2,SSW,6.9,-,N/A,,Partly Cloudy,200,2012-12-07 07:00:00
2:30 PM,84.2,50.0,30,29.86,6.2,SSW,5.8,-,N/A,,Partly Cloudy,210,2012-12-07 07:30:00
3:00 PM,86.0,50.0,29,29.86,6.2,South,3.5,-,N/A,,Partly Cloudy,190,2012-12-07 08:00:00
3:30 PM,86.0,50.0,29,29.86,6.2,SSE,5.8,-,N/A,,Partly Cloudy,160,2012-12-07 08:30:00
4:00 PM,84.2,50.0,30,29.86,6.2,SSW,6.9,-,N/A,,Partly Cloudy,200,2012-12-07 09:00:00
4:30 PM,86.0,50.0,29,29.86,6.2,SSW,5.8,-,N/A,,Partly Cloudy,210,2012-12-07 09:30:00
5:00 PM,84.2,51.8,33,29.86,6.2,WSW,4.6,-,N/A,,Partly Cloudy,240,2012-12-07 10:00:00
5:30 PM,82.4,53.6,37,29.86,6.2,WNW,3.5,-,N/A,,Partly Cloudy,290,2012-12-07 10:30:00
6:00 PM,78.8,59.0,51,29.89,6.2,West,3.5,-,N/A,,Partly Cloudy,280,2012-12-07 11:00:00
6:30 PM,77.0,59.0,54,29.89,6.2,NW,2.3,-,N/A,,Partly Cloudy,310,2012-12-07 11:30:00
7:00 PM,76,63,56,29.85,6,Calm,Calm,,,,,,2012-12-07 12:00:00
7:00 PM,75.2,59.0,57,29.89,6.2,Calm,Calm,-,N/A,,Partly Cloudy,0,2012-12-07 12:00:00
7:30 PM,75.2,60.8,61,29.92,6.2,Calm,Calm,-,N/A,,Partly Cloudy,0,2012-12-07 12:30:00
8:00 PM,73.4,59.0,61,29.92,6.2,WNW,2.3,-,N/A,,Partly Cloudy,290,2012-12-07 13:00:00
8:30 PM,73.4,60.8,65,29.92,6.2,Calm,Calm,-,N/A,,Partly Cloudy,0,2012-12-07 13:30:00
9:00 PM,73.4,60.8,65,29.92,6.2,Calm,Calm,-,N/A,,Partly Cloudy,0,2012-12-07 14:00:00
9:30 PM,71.6,62.6,73,29.92,-9999.0,West,2.3,-,N/A,,Clear,280,2012-12-07 14:30:00
10:00 PM,71.6,60.8,69,29.95,-9999.0,NNW,2.3,-,N/A,,Clear,330,2012-12-07 15:00:00
10:30 PM,69.8,62.6,78,29.95,-9999.0,NNW,3.5,-,N/A,,Clear,340,2012-12-07 15:30:00
11:00 PM,69.8,62.6,78,29.95,-9999.0,Calm,Calm,-,N/A,,Clear,0,2012-12-07 16:00:00
11:30 PM,69.8,62.6,78,29.95,-9999.0,SW,2.3,-,N/A,,Clear,220,2012-12-07 16:30:00